This is the latest recevied weather packets stored in our database for station/object IK2YOU-3. If no packets are shown the sender has not sent any weather packets the latest 1 day(s).
| Time | Temp. | Humidity | Pressure | Rain* | Wind** | Luminosity | Snow |
|---|---|---|---|---|---|---|---|
| 1777980844 | 16.11° C | 85% | 1010.6 hPa | 0 mm | 0.89 m/s, 96° | 281 W/m² | - |
| 1777980244 | 15.56° C | 85% | 1010.6 hPa | 0 mm | 0.89 m/s, 47° | 235 W/m² | - |
| 1777979644 | 15.56° C | 86% | 1010.7 hPa | 0 mm | 0.45 m/s, 90° | 147 W/m² | - |
| 1777979057 | 15.56° C | 85% | 1010.8 hPa | 0 mm | 0.45 m/s, 58° | 98 W/m² | - |
| 1777978443 | 15.56° C | 85% | 1010.9 hPa | 0 mm | 0.45 m/s, 57° | 117 W/m² | - |
| 1777977844 | 15.56° C | 85% | 1010.8 hPa | 0 mm | 0.45 m/s, 33° | 133 W/m² | - |
| 1777977240 | 15° C | 83% | 1010.8 hPa | 0 mm | 0.45 m/s, 98° | 276 W/m² | - |
| 1777976766 | 15° C | 83% | 1010.8 hPa | 0 mm | 0.45 m/s, 69° | 119 W/m² | - |
| 1777976040 | 15° C | 83% | 1010.8 hPa | 0 mm | 0.45 m/s, 30° | 89 W/m² | - |
| 1777975568 | 15° C | 83% | 1010.9 hPa | 0 mm | 0 m/s | 64 W/m² | - |
| 1777974840 | 14.44° C | 82% | 1010.9 hPa | 0 mm | 0 m/s | 115 W/m² | - |
| 1777974240 | 14.44° C | 79% | 1010.9 hPa | 0 mm | 0 m/s | 75 W/m² | - |
| 1777973640 | 14.44° C | 78% | 1011 hPa | 0 mm | 0 m/s | 110 W/m² | - |
| 1777973040 | 14.44° C | 77% | 1010.8 hPa | 0 mm | 0 m/s | 138 W/m² | - |
| 1777972439 | 14.44° C | 77% | 1010.7 hPa | 0 mm | 0 m/s | 119 W/m² | - |
| 1777971968 | 13.89° C | 77% | 1010.8 hPa | 0 mm | 0 m/s | 86 W/m² | - |
| 1777971238 | 13.89° C | 77% | 1010.6 hPa | 0 mm | 0.45 m/s, 159° | 89 W/m² | - |
| 1777970637 | 13.89° C | 76% | 1010.6 hPa | 0 mm | 0 m/s | 81 W/m² | - |
| 1777970037 | 13.89° C | 77% | 1010.6 hPa | 0 mm | 0.45 m/s, 156° | 52 W/m² | - |
| 1777969437 | 13.89° C | 77% | 1010.7 hPa | 0 mm | 0 m/s | 37 W/m² | - |
| 1777968837 | 13.89° C | 77% | 1010.6 hPa | 0.25 mm | 0 m/s | 23 W/m² | - |
| 1777968364 | 13.33° C | 77% | 1010.6 hPa | 0.51 mm | 0.45 m/s, 146° | 62 W/m² | - |
| 1777967635 | 13.33° C | 77% | 1010.8 hPa | 1.27 mm | 0 m/s | 32 W/m² | - |
| 1777967166 | 13.33° C | 77% | 1010.8 hPa | 1.52 mm | 0 m/s | 33 W/m² | - |
| 1777966435 | 13.33° C | 77% | 1010.7 hPa | 1.52 mm | 0.45 m/s, 126° | 43 W/m² | - |
* Rain latest hour (hover to see other rain measurements)
** Current wind speed in m/s (hover to see current wind gust speed)